EZY1BY EGPH-EGKK

Flight info

Callsign EZY1BY
Flight time N/A
Altitude 33000
Route GOSAM P600 FENIK L612 NAVSO DCT KEPAD L151 DISIT
Aircraft A20N/M-SDE2E3FGHIRWXY/LB1

Departure

Time 2026-05-04 11:41
Airport Edinburgh Airport (EGPH)

Arrival

Time N/A
Airport London Gatwick Airport (EGKK)
Time Latitude Longitude Altitude Speed Heading
2026-05-04 11:27 55.95016 -3.36021 116 ft 0 kts 244°
2026-05-04 11:33 55.95028 -3.35950 111 ft 0 kts 331°
2026-05-04 11:36 55.95058 -3.35968 114 ft 11 kts 337°
2026-05-04 11:37 55.95092 -3.36031 114 ft 4 kts 304°
2026-05-04 11:37 55.95110 -3.36091 115 ft 8 kts 285°
2026-05-04 11:37 55.95148 -3.36168 116 ft 9 kts 356°
2026-05-04 11:37 55.95201 -3.36066 114 ft 15 kts 57°
2026-05-04 11:38 55.95268 -3.35879 112 ft 21 kts 57°
2026-05-04 11:38 55.95350 -3.35631 114 ft 26 kts 59°
2026-05-04 11:38 55.95437 -3.35418 115 ft 16 kts 34°
2026-05-04 11:38 55.95493 -3.35429 115 ft 1 kts 329°
2026-05-04 11:39 55.95497 -3.35433 115 ft 3 kts 329°
2026-05-04 11:39 55.95533 -3.35477 113 ft 10 kts 325°
2026-05-04 11:40 55.95552 -3.35617 111 ft 0 kts 232°
2026-05-04 11:41 55.95453 -3.35916 111 ft 67 kts 240°
2026-05-04 11:41 55.95091 -3.36982 114 ft 129 kts 238°
2026-05-04 11:41 55.94543 -3.38589 162 ft 171 kts 240°
2026-05-04 11:41 55.93879 -3.40353 1070 ft 175 kts 237°
2026-05-04 11:42 55.93175 -3.42099 2036 ft 172 kts 240°
2026-05-04 11:42 55.92532 -3.44002 2686 ft 192 kts 243°
2026-05-04 11:42 55.91835 -3.46209 3379 ft 216 kts 243°
2026-05-04 11:42 55.91064 -3.48667 4182 ft 238 kts 245°
2026-05-04 11:43 55.90426 -3.51494 4881 ft 253 kts 254°
2026-05-04 11:43 55.90062 -3.54542 4996 ft 248 kts 262°
2026-05-04 11:43 55.89762 -3.57560 5102 ft 248 kts 255°
2026-05-04 11:43 55.88897 -3.60204 5217 ft 254 kts 227°
2026-05-04 11:44 55.87475 -3.62143 5340 ft 258 kts 218°
2026-05-04 11:44 55.85981 -3.63931 5454 ft 261 kts 216°
2026-05-04 11:44 55.84463 -3.65714 5567 ft 260 kts 217°
2026-05-04 11:44 55.82959 -3.67492 5685 ft 261 kts 217°
2026-05-04 11:45 55.81459 -3.69286 5797 ft 261 kts 217°
2026-05-04 11:45 55.79942 -3.71122 6246 ft 265 kts 217°
2026-05-04 11:45 55.78413 -3.72974 7342 ft 265 kts 218°
2026-05-04 11:45 55.76882 -3.74830 8591 ft 270 kts 217°
2026-05-04 11:46 55.75318 -3.76723 9799 ft 274 kts 217°
2026-05-04 11:46 55.73710 -3.78669 10728 ft 287 kts 218°
2026-05-04 11:46 55.71994 -3.80752 11307 ft 312 kts 217°
2026-05-04 11:46 55.70130 -3.83011 11756 ft 338 kts 217°
2026-05-04 11:47 55.64870 -3.89357 12566 ft 397 kts 217°
2026-05-04 11:47 55.62531 -3.92160 12969 ft 412 kts 216°
2026-05-04 11:47 55.60133 -3.95010 13738 ft 418 kts 214°
2026-05-04 11:47 55.57489 -3.97265 14471 ft 427 kts 201°
2026-05-04 11:48 55.54559 -3.98355 15201 ft 435 kts 187°
2026-05-04 11:48 55.51574 -3.98229 15917 ft 443 kts 174°
2026-05-04 11:48 55.48509 -3.96849 16628 ft 451 kts 161°
2026-05-04 11:48 55.45625 -3.94582 17292 ft 457 kts 155°
2026-05-04 11:49 55.42756 -3.92102 17969 ft 461 kts 155°
2026-05-04 11:49 55.39849 -3.89693 18668 ft 463 kts 157°
2026-05-04 11:49 55.36925 -3.87414 19236 ft 467 kts 158°
2026-05-04 11:49 55.22385 -3.76791 21370 ft 485 kts 159°
2026-05-04 11:50 55.09881 -3.68001 23414 ft 497 kts 158°
2026-05-04 11:50 54.99773 -3.60851 24432 ft 505 kts 158°
2026-05-04 11:50 54.96510 -3.58549 24660 ft 507 kts 158°
2026-05-04 11:50 54.93237 -3.56247 24898 ft 507 kts 157°
2026-05-04 11:51 54.89967 -3.53951 25182 ft 507 kts 157°
2026-05-04 11:51 54.86692 -3.51655 25454 ft 507 kts 157°
2026-05-04 11:51 54.81570 -3.48070 25889 ft 507 kts 157°
2026-05-04 11:51 54.75969 -3.44162 26373 ft 507 kts 157°
2026-05-04 11:52 54.72696 -3.41883 26653 ft 507 kts 157°
2026-05-04 11:52 54.69428 -3.39612 26946 ft 506 kts 156°
2026-05-04 11:52 54.66167 -3.37353 27303 ft 504 kts 156°
2026-05-04 11:52 54.62907 -3.35096 27578 ft 504 kts 156°
2026-05-04 11:53 54.59648 -3.32843 27861 ft 505 kts 156°
2026-05-04 11:53 54.57493 -3.31354 28041 ft 505 kts 156°
2026-05-04 11:53 54.53130 -3.28347 28411 ft 504 kts 156°
2026-05-04 11:53 54.50975 -3.26863 28608 ft 504 kts 156°
2026-05-04 11:55 54.28308 -3.11376 30859 ft 496 kts 155°
2026-05-04 11:55 54.25107 -3.09202 31254 ft 494 kts 155°
2026-05-04 11:56 54.21920 -3.07042 31638 ft 491 kts 155°
2026-05-04 11:56 54.18749 -3.04898 32088 ft 487 kts 155°
2026-05-04 11:56 54.15614 -3.02783 32564 ft 483 kts 155°
2026-05-04 11:56 54.12495 -3.00679 32928 ft 481 kts 155°
2026-05-04 11:57 54.09388 -2.98585 33098 ft 479 kts 155°
2026-05-04 11:57 54.03193 -2.94420 33070 ft 479 kts 155°
2026-05-04 11:58 53.96995 -2.90268 33071 ft 479 kts 155°
2026-05-04 11:58 53.90799 -2.86136 33067 ft 478 kts 154°
2026-05-04 11:59 53.84651 -2.82043 33065 ft 478 kts 155°
2026-05-04 11:59 53.78463 -2.77938 33067 ft 478 kts 155°
2026-05-04 12:00 53.72271 -2.73843 33066 ft 478 kts 155°
2026-05-04 12:00 53.66096 -2.69779 33069 ft 475 kts 154°
2026-05-04 12:01 53.59937 -2.65729 33070 ft 475 kts 154°
2026-05-04 12:02 53.38379 -2.51661 33072 ft 474 kts 154°
2026-05-04 12:03 53.32224 -2.47672 33075 ft 474 kts 154°
2026-05-04 12:03 53.22961 -2.41693 33074 ft 474 kts 154°
2026-05-04 12:04 52.91707 -2.21856 33076 ft 471 kts 155°
2026-05-04 12:04 52.62675 -2.03345 33064 ft 471 kts 156°
2026-05-04 12:05 52.56572 -1.99585 32902 ft 454 kts 156°
2026-05-04 12:05 52.53659 -1.97804 32358 ft 441 kts 158°
2026-05-04 12:05 52.50798 -1.96041 31261 ft 439 kts 158°
2026-05-04 12:06 52.47982 -1.94293 30127 ft 437 kts 159°
2026-05-04 12:06 52.45146 -1.92529 28930 ft 433 kts 159°
2026-05-04 12:06 52.36261 -1.87005 25623 ft 410 kts 159°
2026-05-04 12:06 52.25901 -1.80628 21743 ft 386 kts 160°
2026-05-04 12:07 52.13719 -1.73248 16972 ft 360 kts 160°
2026-05-04 12:07 52.09698 -1.70774 15747 ft 343 kts 160°
2026-05-04 12:07 52.07443 -1.69395 15668 ft 355 kts 160°
2026-05-04 12:07 52.05116 -1.67982 15625 ft 355 kts 160°
2026-05-04 12:08 52.02816 -1.66583 15110 ft 353 kts 160°
2026-05-04 12:08 52.00499 -1.65175 14031 ft 360 kts 160°
2026-05-04 12:08 51.98123 -1.63730 12329 ft 370 kts 160°
2026-05-04 12:08 51.95457 -1.62111 10452 ft 382 kts 160°
2026-05-04 12:09 51.90706 -1.59245 7956 ft 370 kts 160°
2026-05-04 12:09 51.88327 -1.57829 7045 ft 356 kts 160°
2026-05-04 12:09 51.86109 -1.56531 6923 ft 322 kts 160°
2026-05-04 12:09 51.84048 -1.55332 6817 ft 314 kts 160°
2026-05-04 12:10 51.82019 -1.54153 6701 ft 312 kts 160°
2026-05-04 12:10 51.79989 -1.52971 6591 ft 311 kts 160°
2026-05-04 12:10 51.78058 -1.51563 6468 ft 295 kts 145°
2026-05-04 12:10 51.76602 -1.49423 6348 ft 272 kts 134°
2026-05-04 12:11 51.75383 -1.47152 6226 ft 270 kts 130°
2026-05-04 12:11 51.72923 -1.42272 5979 ft 267 kts 130°
2026-05-04 12:11 51.68097 -1.33033 5500 ft 266 kts 131°
2026-05-04 12:11 51.66246 -1.29538 5322 ft 263 kts 131°
2026-05-04 12:12 51.65052 -1.27292 4746 ft 267 kts 131°
2026-05-04 12:12 51.63825 -1.24979 3936 ft 273 kts 130°
2026-05-04 12:12 51.62634 -1.22735 3821 ft 260 kts 130°
2026-05-04 12:12 51.61459 -1.20520 3701 ft 259 kts 130°
2026-05-04 12:13 51.60290 -1.18315 3595 ft 260 kts 130°
2026-05-04 12:14 51.47000 -0.93429 3001 ft 239 kts 129°
2026-05-04 12:15 51.45922 -0.91410 2997 ft 238 kts 130°
2026-05-04 12:15 51.44839 -0.89390 3002 ft 239 kts 130°
2026-05-04 12:15 51.43746 -0.87353 3193 ft 243 kts 130°
2026-05-04 12:15 51.42637 -0.85289 4071 ft 243 kts 130°
2026-05-04 12:16 51.41542 -0.83249 5203 ft 243 kts 131°
2026-05-04 12:16 51.40430 -0.81179 6183 ft 247 kts 131°
2026-05-04 12:16 51.39301 -0.79079 7159 ft 251 kts 133°